CDT,Max TemperatureF,Mean TemperatureF,Min TemperatureF,Max Dew PointF,MeanDew PointF,Min DewpointF,Max Humidity, Mean Humidity, Min Humidity, Max Sea Level PressureIn, Mean Sea Level PressureIn, Min Sea Level PressureIn, Max VisibilityMiles, Mean VisibilityMiles, Min VisibilityMiles, Max Wind SpeedMPH, Mean Wind SpeedMPH, Max Gust SpeedMPH,PrecipitationIn, CloudCover, Events, WindDirDegrees
2013-6-1,77,68,59,72,63,56,100,82,64,29.97,29.85,29.73,10,9,4,23,8,35,0.76,6,Rain-Thunderstorm,225
2013-6-2,70,62,53,56,54,52,93,76,59,30.05,30.01,29.97,10,10,8,13,5,20,0.00,4,,321
2013-6-3,75,63,50,57,54,50,100,75,49,30.09,30.01,29.94,10,9,2,10,5,15,0.00,2,,117
2013-6-4,77,66,55,63,59,55,100,77,54,30.03,29.98,29.93,10,9,4,15,7,21,0.00,1,,122
2013-6-5,81,70,59,66,62,59,97,78,58,30.00,29.91,29.83,10,10,6,18,5,28,0.00,4,,307
2013-6-6,76,68,59,63,60,57,100,77,54,29.94,29.90,29.88,10,9,4,13,5,17,0.00,5,,318
2013-6-7,77,67,56,58,54,50,93,67,41,29.97,29.93,29.90,10,10,10,14,5,20,0.00,2,,326
2013-6-8,81,67,53,58,55,52,100,71,42,29.96,29.92,29.88,10,10,10,14,5,22,0.00,0,,164
2013-6-9,81,71,61,66,59,52,90,66,42,29.92,29.87,29.83,10,10,10,15,6,22,0.01,2,Rain-Thunderstorm,197
2013-6-10,90,76,62,66,61,55,78,55,32,29.91,29.88,29.83,10,10,10,17,7,25,0.00,1,,255
2013-6-11,93,80,67,67,63,59,87,60,32,30.00,29.95,29.92,10,10,10,13,5,21,0.00,0,,191
2013-6-12,89,82,74,69,68,66,79,63,47,29.99,29.93,29.89,10,10,10,17,8,28,0.00,0,,216
2013-6-13,88,79,69,72,67,62,82,63,43,30.04,29.97,29.91,10,10,10,13,7,20,0.00,1,,320
2013-6-14,88,77,65,69,66,63,100,78,55,30.04,30.00,29.95,10,10,10,15,7,18,0.00,0,,141
2013-6-15,89,78,67,70,66,61,84,64,43,30.06,30.00,29.94,10,10,10,14,6,17,0.00,1,,147
2013-6-16,85,77,69,72,67,63,97,78,59,30.01,29.97,29.92,10,10,10,16,6,30,0.01,4,Rain-Thunderstorm,148
2013-6-17,80,73,65,70,66,64,100,79,58,30.00,29.94,29.88,10,8,2,10,4,18,0.18,5,Rain,304
2013-6-18,85,74,62,65,62,60,100,72,44,30.05,29.99,29.94,10,6,0,23,4,,0.00,3,Fog,320
2013-6-19,87,73,59,65,62,58,100,69,37,30.06,30.02,29.98,10,10,9,15,5,20,0.00,0,,161
2013-6-20,88,76,63,68,65,62,93,71,48,30.10,30.05,30.01,10,9,6,15,7,22,0.00,0,,157
2013-6-21,91,80,69,72,69,66,93,73,52,30.10,30.06,30.01,10,10,10,15,8,28,0.00,0,,177
2013-6-22,90,80,70,72,69,65,93,70,47,30.09,30.03,29.97,10,10,8,14,8,22,0.00,0,,166
2013-6-23,90,80,69,71,68,66,90,70,50,30.01,29.99,29.94,10,10,8,16,7,22,0.00,1,,168
2013-6-24,90,80,69,70,68,66,90,69,47,30.07,30.01,29.97,10,10,8,17,7,28,0.00,1,,178
2013-6-25,90,81,72,71,67,65,84,64,44,29.99,29.93,29.86,10,10,10,21,10,28,0.00,0,,177
2013-6-26,95,85,75,73,70,68,85,67,49,29.90,29.86,29.83,10,10,10,18,7,26,0.00,0,,222
2013-6-27,100,89,77,75,71,66,82,60,38,29.96,29.91,29.85,10,10,10,12,6,16,0.00,0,,281
2013-6-28,93,81,68,72,65,57,76,54,32,29.92,29.85,29.80,10,10,10,17,7,23,0.00,2,,315
2013-6-29,87,77,66,59,54,50,78,54,30,29.85,29.81,29.76,10,10,10,22,9,31,0.00,1,,308
2013-6-30,79,71,62,61,58,55,90,69,47,29.95,29.88,29.80,10,10,10,17,7,24,T,4,,335